WetterOnline ( https://www.wetteronline.de )

Wetter aktuell Bischbrunn

Aktuelles Wetter: Neuhütten/Spessart (340m)

6-stündlich | Neueste Meldungen
Ortszeit Temperatur Wetter
Sa, 20.07. 2:00 14.6° C bedeckt
Fr, 19.07. 20:00 21.9° C bewölkt
Fr, 19.07. 14:00 21.4° C bewölkt
Fr, 19.07. 8:00 14.9° C bedeckt
Fr, 19.07. 2:00 16.0° C bewölkt
Do, 18.07. 20:00 23.2° C bewölkt
Do, 18.07. 14:00 24.6° C leicht bewölkt
Do, 18.07. 8:00 12.9° C wolkig
Ortszeit Temperatur Wetter
Sa, 20.07. 5:30 12.5° C Nebel
Sa, 20.07. 5:20 12.5° C Nebel
Sa, 20.07. 5:10 12.6° C Nebel
Sa, 20.07. 5:00 12.5° C wolkig
Sa, 20.07. 4:50 12.5° C wolkig
Sa, 20.07. 4:40 12.4° C wolkig
Sa, 20.07. 4:30 12.8° C Nebel
Sa, 20.07. 4:00 13.3° C wolkig
Ortszeit Relative Feuchte Sichtweite
Sa, 20.07. 2:00 94% 40 km
Fr, 19.07. 20:00 62% 60 km
Fr, 19.07. 14:00 68% 40 km
Fr, 19.07. 8:00 93% 23 km
Fr, 19.07. 2:00 91% 30 km
Do, 18.07. 20:00 53% 45 km
Do, 18.07. 14:00 43% 35 km
Do, 18.07. 8:00 90% 30 km
Ortszeit Relative Feuchte Sichtweite
Sa, 20.07. 5:30 99% 0.2 km
Sa, 20.07. 5:20 99% -
Sa, 20.07. 5:10 99% -
Sa, 20.07. 5:00 99% 10 km
Sa, 20.07. 4:50 99% -
Sa, 20.07. 4:40 99% -
Sa, 20.07. 4:30 99% 0.2 km
Sa, 20.07. 4:00 98% 11 km
Ortszeit Niederschlagsmenge Niederschlagsart
Sa, 20.07. 2:00 0.0 l/m2 in 6 Std. -
Fr, 19.07. 20:00 1 l/m2 in 12 Std. Regen
Fr, 19.07. 14:00 1 l/m2 in 6 Std. Regen
Fr, 19.07. 8:00 0.3 l/m2 in 12 Std. Regen
Fr, 19.07. 2:00 0.1 l/m2 in 6 Std. Regen
Do, 18.07. 20:00 0.0 l/m2 in 12 Std. -
Do, 18.07. 14:00 0.0 l/m2 in 6 Std. -
Do, 18.07. 8:00 0.0 l/m2 in 12 Std. -
Ortszeit Niederschlagsmenge Niederschlagsart
Sa, 20.07. 5:30 0.0 l/m2 in 1 Std. -
Sa, 20.07. 5:20 keine Meldung -
Sa, 20.07. 5:10 keine Meldung -
Sa, 20.07. 5:00 0.0 l/m2 in 1 Std. -
Sa, 20.07. 4:50 keine Meldung -
Sa, 20.07. 4:40 keine Meldung -
Sa, 20.07. 4:30 0.0 l/m2 in 1 Std. -
Sa, 20.07. 4:00 0.0 l/m2 in 1 Std. -
Ortszeit Stärke Spitze Richtung
km/h Bft. km/h Grad Sektor
Sa, 20.07. 2:00 4 1 11 40° NO
Fr, 19.07. 20:00 7 2 25 240° SW
Fr, 19.07. 14:00 9 2 39 290° W
Fr, 19.07. 8:00 4 1 7 10° N
Fr, 19.07. 2:00 4 1 32 230° SW
Do, 18.07. 20:00 7 2 30 230° SW
Do, 18.07. 14:00 11 2 22 270° W
Do, 18.07. 8:00 4 1 7 80° O
Ortszeit Stärke Spitze Richtung
km/h Bft. km/h Grad Sektor
Sa, 20.07. 5:30 2 1 4 50° NO
Sa, 20.07. 5:20 2 1 - 50° NO
Sa, 20.07. 5:10 0 0 - 320° NW
Sa, 20.07. 5:00 2 1 4 230° SW
Sa, 20.07. 4:50 2 1 - 230° SW
Sa, 20.07. 4:40 4 1 - 210° SW
Sa, 20.07. 4:30 0 0 4 - -
Sa, 20.07. 4:00 4 1 4 30° NO
Ortszeit Untergrenze Bedeckung Gattung
total tief tief mittel hoch
Sa, 20.07. 2:00 6900 m 8/8 8/8 - - -
Fr, 19.07. 20:00 1500 m 7/8 7/8 - - -
Fr, 19.07. 14:00 780 m 7/8 7/8 - - -
Fr, 19.07. 8:00 1800 m 8/8 8/8 - - -
Fr, 19.07. 2:00 2100 m 8/8 6/8 - - -
Do, 18.07. 20:00 2700 m 8/8 6/8 - - -
Do, 18.07. 14:00 1500 m 8/8 1/8 - - -
Do, 18.07. 8:00 1800 m 8/8 1/8 - - -
Ortszeit Bedeckungsgrad in Achtel und Wolkenuntergrenze
Sa, 20.07. 5:30 5(<30m) 8(9000m) 8(10500m)
Sa, 20.07. 5:20 5(<30m) 8(9000m) 8(10500m)
Sa, 20.07. 5:10 1(<30m) 8(9000m) 8(10500m)
Sa, 20.07. 5:00 2(7800m) 8(9000m) 8(10500m)
Sa, 20.07. 4:50 2(7800m) 8(9000m) 8(10500m)
Sa, 20.07. 4:40 2(7800m) 8(9000m) 8(10500m)
Sa, 20.07. 4:30 2(7500m) 8(9000m) 8(10500m)
Sa, 20.07. 4:00 1(<30m) 8(8400m) 8(10500m)
Ortszeit Luftdruck NN (hPa) Tendenz (hPa in 3 Std.)
Sa, 20.07. 2:00 1016 0,0
Fr, 19.07. 20:00 1014 - 0,4
Fr, 19.07. 14:00 1015 0,0
Fr, 19.07. 8:00 1015 + 0,7
Fr, 19.07. 2:00 1014 + 0,6
Do, 18.07. 20:00 1011 0,0
Do, 18.07. 14:00 1012 0,0
Do, 18.07. 8:00 1013 - 0,1
Ortszeit Luftdruck NN (hPa) Tendenz (hPa in 3 Std.)
Sa, 20.07. 5:30 1016 - 0,5
Sa, 20.07. 5:20 1016 keine Meldung
Sa, 20.07. 5:10 1016 keine Meldung
Sa, 20.07. 5:00 1016 - 0,5
Sa, 20.07. 4:50 1016 keine Meldung
Sa, 20.07. 4:40 1016 keine Meldung
Sa, 20.07. 4:30 1016 - 0,6
Sa, 20.07. 4:00 1016 - 0,4
Ortszeit Schneehöhe (cm)
Sa, 20.07. 2:00 -
Fr, 19.07. 20:00 -
Fr, 19.07. 14:00 -
Fr, 19.07. 8:00 -
Fr, 19.07. 2:00 -
Do, 18.07. 20:00 -
Do, 18.07. 14:00 -
Do, 18.07. 8:00 -
Ortszeit Schneehöhe (cm)
Sa, 20.07. 5:30 -
Sa, 20.07. 5:20 -
Sa, 20.07. 5:10 -
Sa, 20.07. 5:00 -
Sa, 20.07. 4:50 -
Sa, 20.07. 4:40 -
Sa, 20.07. 4:30 -
Sa, 20.07. 4:00 -
Link zu dieser Seite / Seite empfehlen

Das Wetter in ...